When you browse on this site, cookies collect data to enhance your experience and personalize the content and advertising you see.
Visit our Privacy Policy to learn more. By continuing to use the site, you agree to this use of cookies and data.

Hourly Weather Salta

Today, 11 August, Tuesday

Time Temperature Precipitation Wind Pressure Humidity
00:00 +15°C° 0 mm 1 mps 651 mmHg 70%
01:00 +15°C° 0 mm 1 mps 652 mmHg 69%
02:00 +15°C° 0 mm 2 mps 652 mmHg 64%
03:00 +14°C° 0 mm 2 mps 652 mmHg 62%
04:00 +13°C° 0 mm 2 mps 651 mmHg 61%
05:00 +12°C° 0 mm 2 mps 651 mmHg 59%
06:00 +12°C° 0 mm 2 mps 651 mmHg 54%
07:00 +12°C° 0 mm 2 mps 652 mmHg 49%
08:00 +12°C° 0 mm 2 mps 652 mmHg 45%
09:00 +13°C° 0 mm 2 mps 652 mmHg 40%
10:00 +14°C° 0 mm 2 mps 652 mmHg 35%
11:00 +15°C° 0 mm 2 mps 652 mmHg 30%
12:00 +16°C° 0 mm 3 mps 652 mmHg 28%
13:00 +17°C° 0 mm 3 mps 651 mmHg 26%
14:00 +17°C° 0 mm 3 mps 650 mmHg 24%
15:00 +17°C° 0 mm 3 mps 649 mmHg 25%
16:00 +16°C° 0 mm 3 mps 649 mmHg 26%
17:00 +14°C° 0 mm 3 mps 648 mmHg 28%
18:00 +12°C° 0 mm 2 mps 648 mmHg 32%
19:00 +9°C° 0 mm 2 mps 648 mmHg 37%
20:00 +8°C° 0 mm 1 mps 647 mmHg 42%
21:00 +7°C° 0 mm 1 mps 647 mmHg 43%
22:00 +6°C° 0 mm 1 mps 647 mmHg 44%
23:00 +5°C° 0 mm 0 mps 647 mmHg 45%

Tomorrow, 12 August, Wednesday

Time Temperature Precipitation Wind Pressure Humidity
00:00 +4°C° 0 mm 0 mps 647 mmHg 46%
01:00 +4°C° 0 mm 0 mps 647 mmHg 47%
02:00 +4°C° 0 mm 0 mps 646 mmHg 48%
03:00 +3°C° 0 mm 0 mps 646 mmHg 49%
04:00 +3°C° 0 mm 0 mps 646 mmHg 50%
05:00 +3°C° 0 mm 0 mps 645 mmHg 50%
06:00 +4°C° 0 mm 0 mps 646 mmHg 46%
07:00 +6°C° 0 mm 0 mps 646 mmHg 42%
08:00 +7°C° 0 mm 0 mps 647 mmHg 38%
09:00 +11°C° 0 mm 1 mps 648 mmHg 33%
10:00 +14°C° 0 mm 1 mps 648 mmHg 28%
11:00 +18°C° 0 mm 1 mps 649 mmHg 23%
12:00 +18°C° 0 mm 2 mps 649 mmHg 21%
13:00 +19°C° 0 mm 2 mps 648 mmHg 19%
14:00 +21°C° 0 mm 2 mps 648 mmHg 17%
15:00 +20°C° 0 mm 3 mps 647 mmHg 18%
16:00 +19°C° 0 mm 3 mps 647 mmHg 19%
17:00 +19°C° 0 mm 3 mps 647 mmHg 20%
18:00 +16°C° 0 mm 3 mps 647 mmHg 25%
19:00 +13°C° 0 mm 2 mps 647 mmHg 30%
20:00 +10°C° 0 mm 1 mps 646 mmHg 35%
21:00 +9°C° 0 mm 1 mps 646 mmHg 37%
22:00 +9°C° 0 mm 1 mps 646 mmHg 39%
23:00 +8°C° 0 mm 1 mps 646 mmHg 42%

Day after tomorrow, 13 August, Thursday

Time Temperature Precipitation Wind Pressure Humidity
00:00 +8°C° 0 mm 1 mps 646 mmHg 42%
01:00 +7°C° 0 mm 1 mps 646 mmHg 43%
02:00 +7°C° 0 mm 1 mps 645 mmHg 43%
03:00 +7°C° 0 mm 1 mps 645 mmHg 43%
04:00 +7°C° 0 mm 1 mps 645 mmHg 43%
05:00 +7°C° 0 mm 1 mps 645 mmHg 43%
06:00 +8°C° 0 mm 1 mps 646 mmHg 39%
07:00 +10°C° 0 mm 1 mps 647 mmHg 36%
08:00 +11°C° 0 mm 1 mps 648 mmHg 33%
09:00 +14°C° 0 mm 1 mps 648 mmHg 28%
10:00 +18°C° 0 mm 1 mps 649 mmHg 23%
11:00 +19°C° 0 mm 2 mps 649 mmHg 19%
12:00 +21°C° 0 mm 3 mps 649 mmHg 17%
13:00 +22°C° 0 mm 3 mps 649 mmHg 15%
14:00 +23°C° 0 mm 4 mps 648 mmHg 13%
15:00 +22°C° 0 mm 4 mps 648 mmHg 15%
16:00 +21°C° 0 mm 4 mps 647 mmHg 17%
17:00 +20°C° 0 mm 4 mps 647 mmHg 18%
18:00 +17°C° 0 mm 3 mps 646 mmHg 25%
19:00 +14°C° 0 mm 2 mps 646 mmHg 32%
20:00 +11°C° 0 mm 1 mps 646 mmHg 39%
21:00 +11°C° 0 mm 1 mps 646 mmHg 42%
22:00 +10°C° 0 mm 1 mps 646 mmHg 44%
23:00 +9°C° 0 mm 1 mps 646 mmHg 47%

14 August, Friday

Time Temperature Precipitation Wind Pressure Humidity
00:00 +9°C° 0 mm 1 mps 645 mmHg 47%
01:00 +9°C° 0 mm 1 mps 645 mmHg 47%
02:00 +9°C° 0 mm 1 mps 644 mmHg 48%
03:00 +9°C° 0 mm 1 mps 644 mmHg 46%
04:00 +7°C° 0 mm 2 mps 644 mmHg 45%
05:00 +7°C° 0 mm 2 mps 644 mmHg 44%
06:00 +9°C° 0 mm 2 mps 645 mmHg 40%
07:00 +11°C° 0 mm 1 mps 646 mmHg 36%
08:00 +13°C° 0 mm 1 mps 646 mmHg 32%
09:00 +16°C° 0 mm 1 mps 647 mmHg 27%
10:00 +20°C° 0 mm 2 mps 648 mmHg 21%
11:00 +24°C° 0 mm 2 mps 648 mmHg 16%
12:00 +26°C° 0 mm 3 mps 648 mmHg 13%
13:00 +28°C° 0 mm 4 mps 648 mmHg 10%
14:00 +30°C° 0 mm 5 mps 648 mmHg 7%
15:00 +29°C° 0 mm 5 mps 648 mmHg 7%
16:00 +28°C° 0 mm 5 mps 648 mmHg 8%
17:00 +28°C° 0 mm 5 mps 648 mmHg 8%
18:00 +23°C° 0 mm 4 mps 648 mmHg 16%
19:00 +19°C° 0 mm 3 mps 648 mmHg 25%
20:00 +15°C° 0 mm 2 mps 648 mmHg 34%
21:00 +14°C° 0 mm 2 mps 648 mmHg 37%
22:00 +13°C° 0 mm 2 mps 648 mmHg 41%
23:00 +13°C° 0 mm 1 mps 649 mmHg 44%

15 August, Saturday

Time Temperature Precipitation Wind Pressure Humidity
00:00 +12°C° 0 mm 1 mps 648 mmHg 46%
01:00 +12°C° 0 mm 1 mps 648 mmHg 48%
02:00 +11°C° 0 mm 1 mps 648 mmHg 50%
03:00 +11°C° 0 mm 1 mps 648 mmHg 52%
04:00 +10°C° 0 mm 1 mps 648 mmHg 54%
05:00 +10°C° 0 mm 1 mps 647 mmHg 57%
06:00 +10°C° 0 mm 1 mps 648 mmHg 55%
07:00 +11°C° 0 mm 1 mps 649 mmHg 54%
08:00 +12°C° 0 mm 1 mps 650 mmHg 53%
09:00 +14°C° 0 mm 1 mps 650 mmHg 49%
10:00 +16°C° 0 mm 2 mps 650 mmHg 44%
11:00 +18°C° 0 mm 2 mps 651 mmHg 40%
12:00 +19°C° 0 mm 3 mps 650 mmHg 37%
13:00 +20°C° 0 mm 3 mps 650 mmHg 33%
14:00 +22°C° 0 mm 3 mps 650 mmHg 30%
15:00 +20°C° 0 mm 4 mps 649 mmHg 33%
16:00 +19°C° 0 mm 4 mps 649 mmHg 35%
17:00 +18°C° 0 mm 4 mps 649 mmHg 38%
18:00 +14°C° 0 mm 3 mps 649 mmHg 48%
19:00 +13°C° 0 mm 2 mps 649 mmHg 58%
20:00 +10°C° 0 mm 1 mps 649 mmHg 68%
21:00 +10°C° 0 mm 1 mps 649 mmHg 69%
22:00 +9°C° 0 mm 1 mps 649 mmHg 69%
23:00 +9°C° 0 mm 1 mps 649 mmHg 70%

16 August, Sunday

Time Temperature Precipitation Wind Pressure Humidity
00:00 +9°C° 0 mm 1 mps 649 mmHg 71%
01:00 +8°C° 0 mm 1 mps 648 mmHg 72%
02:00 +8°C° 0 mm 1 mps 648 mmHg 74%
03:00 +8°C° 0 mm 1 mps 647 mmHg 74%
04:00 +7°C° 0 mm 1 mps 647 mmHg 74%
05:00 +7°C° 0 mm 1 mps 646 mmHg 75%
06:00 +8°C° 0 mm 1 mps 647 mmHg 70%
07:00 +10°C° 0 mm 1 mps 648 mmHg 65%
08:00 +10°C° 0 mm 0 mps 648 mmHg 60%
09:00 +13°C° 0 mm 1 mps 648 mmHg 53%
10:00 +16°C° 0 mm 2 mps 649 mmHg 46%
11:00 +18°C° 0 mm 2 mps 649 mmHg 39%
12:00 +20°C° 0 mm 3 mps 648 mmHg 35%
13:00 +21°C° 0 mm 3 mps 648 mmHg 31%
14:00 +22°C° 0 mm 3 mps 648 mmHg 27%
15:00 +22°C° 0 mm 3 mps 647 mmHg 28%
16:00 +21°C° 0 mm 3 mps 647 mmHg 28%
17:00 +21°C° 0 mm 3 mps 647 mmHg 28%
18:00 +18°C° 0 mm 2 mps 647 mmHg 37%
19:00 +15°C° 0 mm 2 mps 647 mmHg 45%
20:00 +12°C° 0 mm 1 mps 646 mmHg 53%
21:00 +12°C° 0 mm 1 mps 647 mmHg 55%
22:00 +11°C° 0 mm 1 mps 647 mmHg 57%
23:00 +10°C° 0 mm 1 mps 647 mmHg 59%
Show more